Regional Weather Roundup
Issued by NWS

Home | Current Version | Previous Version | Text Only | Print | Product List | Glossary On
Versions: 1 2 3 4 5 6 7 8 9 10 11 12 13 14 15 16 17 18 19 20 21 22 23 24 25 26 27 28 29 30 31 32 33 34 35 36 37 38 39 40 41 42 43 44 45 46 47 48 49 50
000
ASUS45 KREV 020510
RWRNV
NEVADA REGIONAL WEATHER ROUNDUP
NATIONAL WEATHER SERVICE RENO NV
1000 PM PDT WED OCT 01 2014

NOTE: "FAIR" INDICATES FEW OR NO CLOUDS BELOW 12,000 FEET WITH NO
SIGNIFICANT WEATHER AND/OR OBSTRUCTIONS TO VISIBILITY.

NVZ001-003-004-020600-
WESTERN NEVADA

CITY           SKY/WX    TMP DP  RH WIND       PRES   REMARKS
RENO           CLEAR     53  30  41 CALM      30.22R
CARSON CITY    FAIR      52  23  32 S3        30.23R
MINDEN         FAIR      39  25  56 E6        30.24
SLIDE MTN        N/A     45  10  24 E13         N/A
FALLON         CLEAR     44  29  55 S5        30.20R
LOVELOCK       CLEAR     51  26  37 NE10      30.20R
HAWTHORNE      CLEAR     55  34  44 NW5       30.21S
$$

NVZ002-CAZ072-073-020600-
NORTHERN AND CENTRAL SIERRA

CITY           SKY/WX    TMP DP  RH WIND       PRES   REMARKS
S. LAKE TAHOE  CLEAR     39  30  70 CALM      30.24R
TRUCKEE        CLEAR     36  28  75 CALM      30.25R
SQUAW VLY 8000 NOT AVBL
BLUE CANYON    CLEAR     59  13  16 NE6       30.16R
MAMMOTH LAKES  FAIR      43  12  28 W5        30.28R
BRIDGEPORT     FAIR      40  24  53 CALM      30.27R
$$

NVZ030-031-036-020600-
NORTHERN NEVADA

CITY           SKY/WX    TMP DP  RH WIND       PRES   REMARKS
ELKO           CLEAR     40  25  55 CALM      30.24R
WINNEMUCCA     CLEAR     37  33  85 SE3       30.22S
WENDOVER       CLEAR     52  36  54 CALM      30.22R
$$

NVZ035-037-020600-
CENTRAL NEVADA

CITY           SKY/WX    TMP DP  RH WIND       PRES   REMARKS
ELY            CLEAR     38  21  50 W8        30.26R
EUREKA           N/A     35  22  58 S5        30.26S
$$

NVZ013-014-020600-
SOUTH CENTRAL NEVADA

CITY           SKY/WX    TMP DP  RH WIND       PRES   REMARKS
TONOPAH        CLEAR     52  20  28 NE10      30.22R
$$

NVZ017-020-022-020600-
SOUTHERN NEVADA

CITY           SKY/WX    TMP DP  RH WIND       PRES   REMARKS
LAS VEGAS      CLEAR     72  31  22 N10       30.00R
N. LAS VEGAS   CLEAR     70  28  21 E12       30.03R
NELLIS AFB     CLEAR     70  32  24 NE10      30.02R
HENDERSON      CLEAR     68  27  21 NE7       30.05R
MERCURY        CLEAR     65  12  12 E10       30.08R
$$


USA.gov is the U.S. government's official web portal to all federal, state and local government web resources and services.